Powrót do katalogu

ANIK A3

TELESAT-3

AktywnyŁącznośćGEO
NORAD 7790·PAYLOAD·🇨🇦 Canada

Wystrzelony May 7, 1975 z Cape Canaveral Space Force Station

Loading…

TLE

ŚwieżeSource: Space-Track

Epoka: Sep 14, 2026, 13:25 UTC

1 07790U 75038A   26257.55954417 -.00000225  00000-0  00000-0 0  9998
2 07790   7.5101 302.1574 0001126 276.2643 257.6760  1.00040044130854

Śledź ANIK A3 w czasie rzeczywistym z AllMySat

Download on the App Store